Location: D�nning
(49.2479°N, 12.8491°E)
Time: 06:10:03
(UTC+00:00)

Okean-O - Pass Details

Date: 18 September 2020
Orbit: 639 x 641 km, 98.2° (Epoch: 27 October)

Event Time Altitude Azimuth Distance (km) Brightness Sun altitude
Rises 18:06:26 0° 186° (S) 2,934 6.0 -9.2°
Reaches altitude 10° 18:08:46 10° 195° (SSW) 2,030 5.2 -9.6°
Maximum altitude 18:12:51 36° 263° (W) 1,018 4.4 -10.2°
Drops below altitude 10° 18:16:59 10° 330° (NNW) 2,046 5.9 -10.9°
Sets 18:19:21 0° 339° (NNW) 2,960 6.6 -11.3°
